Voltar ao catálogo

STARLINK-34341

AtivoComunicaçõesSSO
NORAD 64161·PAYLOAD·🇺🇸 United States

Lançado May 27, 2025 de Vandenberg Space Force Base

Loading…

Próximas Passagens (próximas 24 horas)

TLE

AtualizadoSource: CelesTrak SupGP

Época: Sep 14, 2026, 22:37 UTC

1 64161C 25112R   26257.94284722  .00010984  00000+0  34099-3 0  2575
2 64161  97.2835 305.0497 0000990  98.3321 248.9464 15.33432798    19

Acompanhe STARLINK-34341 em tempo real com AllMySat

Download on the App Store